Location: Kunchanapalle
(16.4623°N, 80.6176°E)
Time: 10:16:43
(UTC+00:00)

Sich 1 - Pass Details

Date: 13 August 2020
Orbit: 593 x 626 km, 82.5° (Epoch: 18 September)

Event Time Altitude Azimuth Distance (km) Brightness Sun altitude
Rises 14:33:17 0° 193° (SSW) 2,884 6.4 -21.2°
Reaches altitude 10° 14:35:32 10° 198° (SSW) 1,983 5.6 -21.7°
Maximum altitude 14:39:49 53° 275° (W) 763 3.8 -22.7°
Drops below altitude 10° 14:44:09 10° 353° (N) 1,995 6.0 -23.6°
Sets 14:46:26 0° 358° (N) 2,903 6.9 -24.1°
